This is the latest recevied weather packets stored in our database for station/object IZ1GCT. If no packets are shown the sender has not sent any weather packets the latest 10 day(s).
| Time | Temp. | Humidity | Pressure | Rain* | Wind** | Luminosity | Snow |
|---|---|---|---|---|---|---|---|
| 1778144742 | 17.22° C | 52% | 1016.1 hPa | 0 mm | - | - | - |
| 1778144443 | 17.78° C | 50% | 1016 hPa | 0 mm | - | - | - |
| 1778144143 | 17.22° C | 54% | 1016.1 hPa | 0 mm | - | - | - |
| 1778143842 | 17.22° C | 55% | 1016.1 hPa | 0 mm | - | - | - |
| 1778143542 | 17.22° C | 56% | 1016.2 hPa | 0 mm | - | - | - |
| 1778143243 | 16.67° C | 56% | 1016.1 hPa | 0 mm | - | - | - |
| 1778142942 | 16.67° C | 56% | 1016.1 hPa | 0 mm | - | - | - |
| 1778142642 | 16.67° C | 55% | 1016.2 hPa | 0 mm | - | - | - |
| 1778142343 | 16.67° C | 54% | 1016.1 hPa | 0 mm | - | - | - |
| 1778142042 | 17.22° C | 53% | 1016.2 hPa | 0 mm | - | - | - |
| 1778141742 | 16.67° C | 53% | 1016.3 hPa | 0 mm | - | - | - |
| 1778141443 | 16.67° C | 52% | 1016.2 hPa | 0 mm | - | - | - |
| 1778141143 | 17.22° C | 51% | 1016.2 hPa | 0 mm | - | - | - |
| 1778140842 | 16.67° C | 50% | 1016.2 hPa | 0 mm | - | - | - |
| 1778140542 | 16.67° C | 48% | 1016.2 hPa | 0 mm | - | - | - |
| 1778140243 | 17.78° C | 41% | 1016.2 hPa | 0 mm | - | - | - |
| 1778139943 | 17.22° C | 41% | 1016.3 hPa | 0 mm | - | - | - |
| 1778139642 | 16.67° C | 40% | 1016.2 hPa | 0 mm | - | - | - |
| 1778139342 | 17.22° C | 42% | 1016.3 hPa | 0 mm | - | - | - |
| 1778139042 | 16.67° C | 43% | 1016.2 hPa | 0 mm | - | - | - |
| 1778138741 | 16.67° C | 45% | 1016.2 hPa | 0 mm | - | - | - |
| 1778138442 | 16.11° C | 43% | 1016.2 hPa | 0 mm | - | - | - |
| 1778138143 | 16.67° C | 43% | 1016.2 hPa | 0 mm | - | - | - |
| 1778137842 | 16.67° C | 44% | 1016.1 hPa | 0 mm | - | - | - |
| 1778137542 | 16.67° C | 43% | 1016.1 hPa | 0 mm | - | - | - |
* Rain latest hour (hover to see other rain measurements)
** Current wind speed in m/s (hover to see current wind gust speed)